Flag for Japan

Past Weather in Tsu, Japan — Yesterday and Last 2 Weeks

Now
71 °F

Mild.


Feels Like: 74 °F
Forecast: 77 / 68 °F
Wind: 6 mph from West

Location: Tsu

Current Time: Jul 3, 2020 at 4:52:36 am

Latest Report: Jul 3, 2020 at 4:00 am


Visibility: 13 mi

Pressure: 29.93 "Hg

Humidity: 71%

Dew Point: 61 °F

Location of TsuLocation

Past Weather in Tsu — Graph

°F

Tsu Temperature Yesterday

Maximum temperature yesterday: 84 °F (at 3:00 pm)
Minimum temperature yesterday: 72 °F (at 5:00 am)
Average temperature yesterday: 77 °F

High & Low Weather Summary for the Past Weeks

 TemperatureHumidityPressure
High89 °F (Jun 27, 12:00 pm)91% (Jun 19, 7:00 am)29.93 "Hg (Jun 19, 7:00 am)
Low64 °F (Jun 21, 5:00 am)37% (Jun 29, 1:00 pm)29.50 "Hg (Jun 19, 10:00 am)
Average76 °F70%29.72 "Hg
* Reported Jun 18 3:00 am — Jul 3 3:00 am, Tsu. Weather by CustomWeather, © 2020

Note: Actual official high and low records may vary slightly from our data, if they occured in-between our weather recording intervals... More about our weather records

Tsu Weather History for the Previous 24 Hours

Scroll right to see more
 ConditionsComfort  
Time TempWeatherWind HumidityBarometerVisibility
3:00 am
Fri, Jul 3
72 °FMild.2 mph66%29.91 "Hg12 mi
1:00 am72 °FMild.5 mph67%29.91 "Hg12 mi
12:00 am72 °FMild.9 mph69%29.93 "Hg12 mi
11:00 pm
Thu, Jul 2
74 °FMild.7 mph64%29.92 "Hg12 mi
9:00 pm75 °FMild.7 mph61%29.90 "Hg12 mi
8:00 pm76 °FMild.8 mph60%29.88 "Hg12 mi
7:00 pm78 °FWarm.8 mph57%29.86 "Hg12 mi
5:00 pm82 °FWarm.10 mph47%29.82 "Hg12 mi
4:00 pm83 °FWarm.12 mph46%29.81 "Hg12 mi
3:00 pm84 °FWarm.14 mph44%29.81 "Hg12 mi
2:00 pm82 °FWarm.10 mph47%29.82 "Hg12 mi
1:00 pm81 °FWarm.12 mph48%29.83 "Hg12 mi
12:00 pm81 °FWarm.8 mph50%29.85 "Hg12 mi
11:00 am80 °FWarm.12 mph48%29.85 "Hg12 mi
10:00 am80 °FWarm.10 mph48%29.83 "Hg12 mi
9:00 am78 °FWarm.12 mph53%29.84 "Hg12 mi
8:00 am76 °FMild.15 mph56%29.82 "Hg12 mi
6:00 am73 °FMild.9 mph61%29.79 "Hg12 mi
5:00 am72 °FMild.15 mph61%29.77 "Hg12 mi
4:00 am73 °FMild.8 mph61%29.75 "Hg12 mi
Weather by CustomWeather, © 2020

See weather overview